Date,TemperatureHighF,TemperatureAvgF,TemperatureLowF,DewpointHighF,DewpointAvgF,DewpointLowF,HumidityHigh,HumidityAvg,HumidityLow,PressureMaxIn,PressureMinIn,WindSpeedMaxMPH,WindSpeedAvgMPH,GustSpeedMaxMPH,PrecipitationSumIn
2013-1-1,28.6,22.0,9.4,23.3,15.0,4.2,81,74,63,29.98,29.79,24,4,24,0.00
2013-1-2,22.9,14.6,5.5,14.3,9.3,2.3,88,79,61,30.18,29.97,13,2,17,0.00
2013-1-3,26.0,16.4,6.5,18.9,9.2,-2.1,88,73,49,30.20,30.01,12,2,13,0.00
2013-1-4,36.4,27.1,23.1,20.2,17.7,15.2,83,68,48,30.01,29.87,14,2,17,0.01
2013-1-5,31.5,24.6,12.7,22.3,18.5,10.6,92,78,63,30.26,29.91,21,3,24,0.00
2013-1-6,38.7,29.9,17.0,27.0,23.6,14.8,92,78,62,30.19,29.94,11,1,13,0.02
2013-1-7,34.5,26.8,15.1,27.0,20.0,12.9,93,76,44,30.35,30.01,14,2,15,0.00
2013-1-8,44.6,28.4,16.9,26.2,19.0,12.2,87,70,31,30.39,30.26,8,1,12,0.05
2013-1-9,45.2,31.9,15.5,34.8,23.0,13.0,92,71,48,30.39,30.04,23,3,26,0.03
2013-1-10,37.9,31.7,22.9,26.1,21.9,19.3,87,67,54,30.54,30.15,30,4,30,0.00
2013-1-11,38.5,31.0,20.0,37.2,25.3,16.7,95,81,44,30.53,30.13,20,3,21,0.12
2013-1-12,55.4,39.2,31.4,46.7,37.0,30.6,98,92,70,30.15,30.08,10,0,0,0.00
2013-1-13,60.2,43.7,30.9,52.5,41.4,30.2,99,92,75,30.12,29.93,17,1,21,0.01
2013-1-14,53.8,40.6,27.1,52.1,36.2,20.8,98,84,64,30.25,29.83,13,3,20,0.12
2013-1-15,30.6,26.8,23.6,21.9,20.3,19.3,85,76,64,30.33,30.18,11,1,13,0.00
2013-1-16,32.2,26.2,21.8,30.7,24.1,19.5,97,92,78,30.22,29.82,4,0,0,0.00
2013-1-17,30.1,27.2,24.8,24.5,23.0,21.7,90,84,79,30.01,29.86,13,1,17,0.00
2013-1-31,34.1,26.0,19.9,18.9,12.6,6.3,69,56,45,29.59,29.22,18,5,23,0.76
2013-2-1,20.8,16.3,12.3,12.2,6.7,1.8,85,66,54,30.14,29.59,23,4,24,0.00
2013-2-2,20.6,14.4,9.7,10.0,5.5,3.7,80,68,49,30.21,30.05,16,3,19,0.00
2013-2-3,19.5,12.7,8.4,14.1,9.6,5.9,91,87,73,29.95,29.78,7,0,0,0.00
2013-2-4,19.5,14.5,11.7,13.2,7.7,3.0,91,74,51,29.94,29.78,13,2,19,0.00
2013-2-5,22.6,16.3,11.6,17.9,11.8,8.2,90,82,69,30.00,29.91,8,1,0,0.00
2013-2-6,28.7,22.1,12.6,19.4,13.9,-1.9,91,71,45,30.34,29.90,17,2,18,0.00
2013-2-7,23.5,14.3,7.7,8.6,4.7,2.0,81,66,48,30.50,30.32,10,1,0,0.00
2013-2-8,24.5,21.3,18.3,22.8,18.8,13.9,93,90,79,30.24,29.77,9,1,13,0.00
2013-2-9,19.0,15.5,8.4,17.1,12.3,1.6,93,87,72,30.34,29.81,16,3,22,0.00
2013-2-10,34.6,16.8,0.1,15.4,4.4,-4.7,88,62,20,30.51,30.29,17,2,20,0.04
2013-2-11,50.5,35.5,28.5,43.1,27.3,-3.2,98,76,20,30.29,29.64,21,3,24,0.30
2013-2-12,32.5,30.2,26.3,27.9,23.5,17.6,83,76,70,29.92,29.65,20,4,24,0.00
2013-2-13,35.9,28.9,24.6,22.5,20.1,17.9,78,70,55,29.90,29.70,8,1,12,0.00
2013-2-14,37.4,27.7,15.0,25.2,20.1,12.5,92,74,54,29.95,29.70,10,1,0,0.00
2013-2-15,46.2,36.1,28.1,27.6,25.2,22.5,91,66,41,29.95,29.88,15,2,16,0.00
2013-2-16,29.7,22.5,17.4,26.0,16.0,8.4,92,76,56,29.95,29.78,10,2,13,0.00
2013-2-17,18.3,12.5,6.0,9.9,0.8,-2.4,74,60,41,29.89,29.65,24,7,29,0.00
2013-2-18,25.6,13.9,4.6,7.4,1.8,-1.9,74,59,36,30.23,29.89,25,4,27,0.00
2013-2-19,40.4,29.4,13.7,30.9,22.4,6.3,94,76,49,30.18,29.62,25,2,32,0.00
2013-2-20,27.2,19.4,15.0,25.0,11.2,4.9,92,70,52,29.88,29.64,25,4,26,0.00
2013-2-21,20.5,15.3,12.5,11.1,8.7,6.9,87,75,61,30.39,29.86,19,4,25,0.00
2013-2-22,30.9,23.0,13.1,22.2,17.0,10.7,92,78,64,30.44,30.24,13,2,17,0.00
2013-2-23,33.9,31.2,27.6,31.8,28.8,22.3,96,91,80,30.24,29.85,22,3,22,0.00
2013-2-24,35.7,30.0,24.4,33.1,27.2,19.1,97,89,76,29.95,29.74,14,2,17,0.01
2013-2-25,35.6,29.0,23.5,25.3,23.2,19.0,90,79,61,30.24,29.95,9,1,12,0.00
2013-2-26,36.0,27.1,15.8,26.8,22.0,13.9,95,82,64,30.30,29.99,13,1,17,0.00
2013-2-27,35.6,31.5,25.3,34.8,30.6,23.5,97,96,92,30.00,29.53,13,2,16,0.65
2013-2-28,38.9,32.7,29.6,36.1,31.2,26.8,98,94,80,29.59,29.53,6,0,0,0.31
2013-3-1,34.7,29.3,24.3,27.2,25.0,20.7,90,84,70,29.76,29.58,14,2,17,0.01
2013-3-2,30.5,24.0,18.3,21.9,19.5,14.6,88,83,69,29.77,29.70,13,2,16,0.00
2013-3-3,25.5,19.2,14.8,18.9,14.2,10.9,86,80,73,29.80,29.71,12,2,16,0.00
2013-3-4,27.1,21.2,16.8,18.4,16.5,13.4,90,82,69,29.94,29.77,23,5,25,0.00
2013-3-5,39.5,27.7,21.3,26.3,22.0,18.2,90,80,58,30.08,29.93,13,2,16,0.06
2013-3-6,33.2,29.6,27.2,29.2,25.4,21.7,92,84,77,30.09,30.00,20,3,21,0.00
2013-3-7,31.2,27.3,25.4,25.5,23.1,20.2,93,84,70,30.14,30.06,20,3,21,0.00
2013-3-8,36.9,28.9,23.6,32.1,25.4,21.6,95,87,69,30.29,30.06,19,3,26,0.09
2013-3-9,52.7,32.3,16.4,24.5,18.6,6.6,94,64,17,30.37,30.27,12,1,13,0.09
2013-3-10,51.0,36.4,20.9,29.0,22.7,16.8,88,61,31,30.37,30.22,13,2,15,0.00
2013-3-11,49.4,42.5,31.5,41.3,28.4,17.7,95,60,33,30.24,30.00,15,4,23,0.00
2013-3-12,46.2,44.7,42.6,44.5,43.0,40.9,96,94,92,30.02,29.86,32,10,36,0.62
2013-3-24,38.3,32.4,28.0,22.1,20.4,18.7,74,61,48,29.90,29.74,13,3,14,0.01
2013-3-25,37.6,30.7,24.0,24.3,22.2,19.6,83,71,55,29.75,29.50,15,2,16,0.00
2013-3-26,40.4,31.5,24.6,29.5,24.0,18.4,87,74,45,29.85,29.60,14,2,14,0.01
2013-3-27,43.1,31.7,19.1,27.3,21.5,16.9,93,68,38,29.96,29.84,14,2,17,0.00
2013-3-28,37.4,33.4,29.6,30.7,27.8,24.7,86,80,74,30.12,29.93,13,2,15,0.01
2013-3-29,41.4,34.5,29.1,28.2,26.7,24.8,84,73,56,30.13,30.07,10,2,14,0.00
2013-3-30,47.2,36.0,25.2,27.5,23.2,17.8,90,63,32,30.14,30.07,14,2,19,0.00
2013-3-31,46.4,35.1,22.9,34.4,26.3,19.8,94,73,44,30.12,29.69,25,3,26,0.43
2013-4-1,49.1,35.0,23.0,39.9,28.4,11.7,98,78,48,29.83,29.58,19,3,21,0.01
2013-4-2,30.7,24.4,19.4,16.1,11.5,8.7,74,58,40,30.02,29.81,20,4,23,0.00
2013-4-3,32.4,25.2,20.0,17.2,13.9,11.1,87,63,46,30.29,29.98,19,4,21,0.00
2013-4-4,49.4,33.8,20.3,21.8,17.0,12.2,81,53,27,30.36,30.00,17,3,18,0.00
2013-4-5,48.3,37.3,26.4,25.3,18.5,5.9,74,48,29,30.00,29.75,16,3,20,0.00
2013-4-6,43.6,29.9,20.8,20.7,10.2,1.4,80,47,20,30.31,29.93,17,4,24,0.00
2013-4-7,53.2,42.1,27.9,37.7,22.5,10.7,76,47,32,30.27,29.93,22,5,28,0.00
2013-4-13,46.9,41.5,35.9,37.7,34.5,31.3,91,76,62,29.93,29.83,10,1,0,0.02
2013-4-14,40.9,34.8,26.1,32.6,27.1,23.3,93,74,53,30.23,29.92,16,2,18,0.00
2013-4-15,56.6,41.0,25.6,36.0,29.4,23.4,93,66,43,30.36,30.22,18,2,18,0.00
2013-4-16,55.2,49.0,41.9,52.8,43.1,29.3,94,81,60,30.32,30.06,21,4,30,0.24
2013-4-17,57.2,45.6,33.0,51.9,34.9,29.8,94,70,37,30.31,30.09,14,2,16,0.03
2013-4-18,54.2,44.7,31.3,49.4,36.0,29.0,97,73,50,30.32,30.07,24,4,28,0.00
2013-4-19,64.7,57.3,50.3,59.4,54.9,49.3,97,92,82,30.07,29.55,28,7,33,0.96
2013-4-20,51.0,40.3,28.9,49.1,30.5,18.0,96,70,41,30.26,29.61,19,3,21,0.32
2013-4-21,44.6,32.3,24.2,22.2,18.8,13.9,77,59,36,30.66,30.26,14,3,20,0.00
2013-4-22,51.1,37.8,25.4,29.4,23.2,17.5,83,58,32,30.70,30.50,12,2,16,0.00
2013-4-23,43.5,35.0,26.6,37.6,31.1,23.8,95,86,78,30.50,30.15,7,1,0,0.00
2013-4-24,66.4,47.9,26.9,51.2,39.8,25.9,98,76,49,30.15,29.74,18,3,21,0.00
2013-4-25,58.2,42.7,29.9,51.4,29.2,20.7,88,62,29,30.26,29.75,17,3,21,0.14
2013-4-26,54.2,40.3,27.9,34.5,28.6,24.7,90,66,35,30.47,30.26,13,2,16,0.00
2013-4-27,60.4,43.3,25.8,35.0,28.2,16.1,93,60,26,30.45,30.31,10,1,0,0.00
2013-4-28,66.0,50.6,32.2,40.4,34.5,29.0,90,58,34,30.32,30.14,15,2,17,0.00
2013-4-29,51.5,47.9,45.3,44.0,40.3,32.6,90,76,50,30.20,30.15,21,4,22,0.06
2013-4-30,65.0,52.6,40.9,45.7,39.9,27.4,90,65,35,30.30,30.18,12,2,0,0.00
2013-5-1,68.5,51.8,33.9,42.4,34.0,25.1,93,57,20,30.44,30.28,11,1,14,0.00
2013-5-2,73.3,55.3,35.7,43.0,37.8,32.9,92,58,26,30.44,30.29,10,1,12,0.00
2013-5-3,63.6,52.5,43.1,43.0,34.4,29.0,80,52,29,30.42,30.30,11,2,14,0.00
2013-5-4,68.7,52.5,35.2,45.0,39.3,33.9,97,65,34,30.34,30.19,12,2,17,0.00
2013-5-5,66.3,50.2,32.8,38.1,32.6,24.0,91,57,22,30.25,30.16,10,2,0,0.00
2013-5-6,66.7,50.1,31.4,47.1,39.9,29.9,96,71,41,30.23,30.11,11,2,13,0.00
2013-5-7,72.3,57.5,40.8,52.6,46.8,39.9,98,72,34,30.15,30.05,12,2,16,0.00
2013-5-8,58.2,56.2,51.1,57.1,54.3,49.3,97,93,85,30.11,29.95,12,1,16,0.50
2013-5-9,61.2,53.2,45.1,54.4,50.6,44.3,98,91,77,29.98,29.86,13,0,13,0.03
2013-5-10,70.8,57.4,40.6,57.5,50.3,40.1,99,79,53,29.99,29.84,15,2,17,0.00
2013-5-11,63.6,58.1,52.6,59.1,55.3,51.8,97,91,71,29.85,29.64,11,1,17,1.02
2013-5-12,55.6,48.2,37.7,51.6,38.7,24.3,97,73,33,29.82,29.62,14,2,21,0.04
2013-5-13,44.4,37.2,30.4,30.5,26.2,22.9,86,65,49,30.09,29.82,13,3,15,0.00
2013-5-14,52.2,37.3,28.5,29.2,26.3,21.2,91,69,32,30.12,30.03,13,1,14,0.00
2013-5-15,60.7,45.7,28.3,51.3,38.9,25.8,95,78,57,30.07,29.66,22,3,26,0.08
2013-5-16,74.3,62.0,48.5,48.5,37.9,32.0,90,44,24,29.82,29.69,18,3,22,0.00
2013-5-17,63.2,51.9,41.5,41.4,37.9,33.1,89,61,41,30.22,29.82,17,2,19,0.00
2013-5-18,63.7,51.1,35.2,47.2,41.4,34.0,97,72,43,30.30,30.22,17,2,19,0.00
2013-5-19,54.2,52.4,48.7,51.6,49.1,41.8,96,89,74,30.27,30.11,14,2,19,0.02
2013-5-20,74.3,62.9,51.2,66.1,58.7,50.1,98,87,68,30.12,29.93,11,1,16,0.00
2013-5-21,85.8,68.8,53.5,70.1,62.3,52.9,99,82,41,29.95,29.76,10,1,15,0.00
2013-5-22,77.5,68.3,58.6,68.3,64.2,57.8,99,87,65,29.83,29.75,15,2,22,0.33
2013-5-23,70.2,64.3,56.6,63.4,59.4,53.8,97,85,65,29.81,29.67,11,2,13,1.40
2013-5-24,59.5,46.0,34.6,58.3,44.7,33.3,98,95,90,29.95,29.61,13,2,18,0.95
2013-5-25,40.0,37.5,35.1,38.1,35.8,33.8,96,94,90,29.97,29.89,21,5,27,1.26
2013-5-26,50.3,42.3,34.7,40.2,36.4,33.1,95,81,57,30.17,29.88,23,3,27,0.04
2013-5-27,66.4,48.6,31.9,41.8,35.4,31.1,98,67,30,30.23,30.14,15,2,18,0.00
2013-5-28,61.7,49.7,35.2,52.0,42.6,33.6,96,80,37,30.21,30.11,13,2,17,0.07
2013-5-29,79.3,64.0,51.9,66.5,59.6,51.1,99,87,58,30.12,29.93,16,2,17,1.90
2013-5-30,84.8,69.2,56.3,66.7,61.8,55.6,99,80,45,30.08,30.02,13,1,15,0.01
2013-5-31,86.4,70.7,57.1,70.7,61.9,56.5,99,77,43,30.10,29.93,11,1,15,0.00
2013-6-1,86.5,72.2,56.7,69.3,62.2,55.9,98,74,43,29.96,29.83,14,2,19,0.00
2013-6-2,80.7,71.5,61.7,68.0,64.7,60.3,97,80,61,29.83,29.66,19,3,19,0.08
2013-6-3,69.3,60.1,48.0,60.5,54.1,42.7,98,82,55,29.88,29.75,11,1,12,0.03
2013-6-4,64.9,53.4,43.6,43.0,38.8,32.8,80,60,32,30.13,29.88,15,4,19,0.00
2013-6-5,68.0,53.8,37.2,49.7,42.8,35.6,96,69,40,30.20,30.09,11,1,12,0.00
2013-6-6,63.7,55.0,46.9,53.7,48.4,41.0,94,79,56,30.13,30.00,15,2,20,0.23
2013-6-7,54.3,52.4,51.1,53.5,51.2,48.5,98,96,89,30.00,29.73,21,2,21,1.22
2013-6-8,70.6,57.6,50.5,59.2,54.0,49.9,98,88,62,30.04,29.67,9,1,13,0.54
2013-6-9,72.5,58.6,46.1,58.5,51.9,45.6,99,81,51,30.19,30.04,11,1,18,0.00
2013-6-10,58.6,55.0,48.9,57.9,54.3,48.1,99,97,94,30.18,29.85,8,1,15,1.44
2013-6-11,69.0,59.8,55.1,64.6,57.8,52.6,99,93,79,29.85,29.56,16,2,19,0.73
2013-6-12,66.8,57.0,47.9,53.2,50.4,46.8,97,80,54,29.85,29.61,21,4,24,0.00
2013-6-13,54.1,50.0,45.4,53.3,49.4,44.6,99,98,96,29.83,29.60,13,2,14,1.86
2013-6-14,67.0,54.0,46.2,56.1,50.9,44.3,97,90,62,29.90,29.64,14,2,15,0.35
2013-6-15,71.6,58.8,46.2,52.8,47.8,43.1,98,71,40,29.99,29.90,13,2,14,0.01
2013-6-16,67.5,58.4,44.7,59.9,52.5,42.9,97,82,56,29.97,29.71,15,2,17,0.00
2013-6-17,78.5,62.8,52.4,62.9,56.0,50.6,99,82,40,29.91,29.79,20,1,24,0.17
2013-6-18,67.5,57.4,46.4,62.5,54.7,42.8,99,91,65,29.93,29.84,11,1,12,0.18
2013-6-19,64.5,51.3,43.4,47.8,43.2,37.7,98,76,40,30.18,29.92,14,2,15,0.00
2013-6-20,72.8,56.7,39.4,57.7,49.1,38.6,99,78,51,30.25,30.17,12,1,12,0.00
2013-6-21,73.2,63.2,49.8,65.1,58.8,48.8,98,86,67,30.25,30.19,11,1,0,0.00
2013-6-22,79.5,66.9,53.0,64.4,59.6,52.4,99,80,53,30.20,30.06,15,2,15,0.00
2013-6-23,85.5,73.6,63.2,69.1,64.7,61.1,94,75,47,30.11,29.97,16,2,18,0.00
2013-6-24,86.1,71.0,59.1,72.3,64.6,58.1,97,82,51,30.00,29.89,16,1,16,0.09
2013-6-25,83.6,70.4,57.5,70.0,63.5,56.8,99,81,53,29.96,29.74,12,1,15,0.01
2013-6-26,77.7,68.7,59.8,67.6,63.5,58.8,97,84,65,29.80,29.73,12,1,13,0.00
2013-6-27,78.1,67.4,55.8,69.1,63.8,55.2,99,89,69,29.80,29.50,10,1,13,0.54
2013-6-28,77.0,69.0,61.4,65.2,63.3,59.5,98,83,65,29.50,29.37,27,3,30,2.09
2013-6-29,74.8,65.3,54.7,65.7,60.2,53.9,99,85,60,29.67,29.44,17,2,18,0.00
2013-6-30,79.6,65.6,57.5,68.4,62.3,56.6,99,90,63,29.90,29.67,12,1,12,0.46
2013-7-1,73.1,66.2,60.2,69.7,64.8,59.9,99,96,87,30.00,29.88,14,1,15,0.80
2013-7-2,76.5,70.6,65.9,71.0,67.8,65.3,99,91,79,30.11,29.99,12,2,12,0.22
2013-7-3,79.2,71.4,65.5,70.6,67.3,64.5,97,87,73,30.16,30.09,10,1,13,0.01
2013-7-4,84.6,73.3,62.4,73.0,67.4,61.8,99,83,59,30.18,30.08,13,2,14,0.00
2013-7-5,86.2,75.7,67.0,74.2,69.5,65.7,97,82,56,30.14,30.01,14,2,16,0.00
2013-7-6,83.7,75.7,65.4,70.0,67.1,64.2,96,76,59,30.07,29.98,9,2,13,0.00
2013-7-7,85.6,73.1,64.4,75.7,69.6,63.7,99,89,64,30.03,29.87,9,1,0,0.00
2013-7-8,81.8,70.8,64.6,71.0,66.1,63.1,98,86,60,30.01,29.90,10,1,13,0.29
2013-7-9,80.3,69.9,61.5,72.8,66.6,61.2,99,90,62,30.04,29.95,13,1,13,0.01
2013-7-10,79.7,70.6,63.3,71.3,67.5,62.6,99,90,75,29.96,29.75,13,1,15,0.03
2013-7-11,76.8,68.9,59.3,67.0,61.5,55.2,98,79,53,29.94,29.74,15,2,16,0.02
2013-7-12,75.0,66.7,57.9,64.4,59.2,53.8,90,77,64,30.14,29.93,12,1,17,0.00
2013-7-13,72.6,64.4,58.1,69.7,62.8,56.1,98,95,77,30.29,30.14,8,0,0,0.36
2013-7-14,84.0,71.5,60.7,71.8,67.2,60.4,100,87,63,30.32,30.21,9,1,13,0.00
2013-7-15,84.8,73.7,64.9,71.2,66.7,63.4,99,81,54,30.23,30.13,12,1,16,0.00
2013-7-16,83.8,72.4,60.6,68.4,64.4,59.9,99,79,49,30.20,30.13,13,1,16,0.00
2013-7-17,88.6,74.2,61.4,73.5,66.1,60.8,99,79,47,30.19,30.01,10,1,13,0.00
2013-7-18,88.3,76.1,67.0,72.0,69.4,66.1,98,81,53,30.04,29.92,10,1,0,0.00
2013-7-19,89.2,77.4,63.8,72.3,68.1,63.1,99,76,51,29.94,29.72,16,2,18,0.00
2013-7-20,81.9,72.9,59.8,69.3,65.5,56.5,94,78,61,29.82,29.65,12,1,13,0.00
2013-7-21,72.6,61.1,54.9,64.7,58.7,53.7,96,92,76,29.97,29.82,0,0,0,0.00
2013-7-22,77.7,67.2,56.8,68.8,62.8,56.2,98,87,57,29.97,29.80,12,1,12,2.62
2013-7-23,77.5,69.0,60.5,71.5,66.4,59.8,99,92,69,29.80,29.53,10,1,14,2.41
2013-7-24,70.5,62.2,52.5,63.1,56.5,47.3,99,83,57,29.97,29.59,15,2,18,0.01
2013-7-25,67.3,56.9,48.7,57.4,49.9,42.8,95,78,63,30.08,29.96,14,1,14,0.00
2013-7-26,72.3,60.4,51.8,61.7,55.5,50.7,97,85,60,30.06,29.98,14,1,14,0.00
2013-7-27,75.6,63.8,49.2,64.9,57.1,48.7,99,81,55,30.04,29.93,19,2,19,0.00
2013-7-28,67.3,64.3,59.7,65.2,61.3,58.0,95,90,78,29.95,29.89,15,2,16,0.36
2013-7-29,74.3,63.9,52.7,63.6,58.2,51.4,99,84,50,30.09,29.92,11,1,0,0.00
2013-7-30,72.2,58.7,48.7,58.8,53.7,48.2,99,85,58,30.16,30.08,9,1,0,0.00
2013-7-31,71.6,60.8,48.7,62.9,56.3,48.2,99,86,69,30.17,30.02,8,1,0,0.00
2013-8-1,68.3,61.0,55.2,62.7,59.2,54.4,99,94,82,30.02,29.82,22,3,24,0.17
2013-8-2,75.3,63.5,54.2,60.6,57.2,53.1,99,83,49,29.87,29.79,13,1,14,0.20
2013-8-3,74.0,62.6,52.3,59.3,54.8,49.6,99,78,51,29.87,29.80,12,2,15,0.01
2013-8-4,69.4,58.2,49.2,56.1,50.9,46.8,98,78,47,29.95,29.84,16,2,17,0.01
2013-8-5,70.2,57.4,46.8,50.3,46.8,40.2,95,71,40,30.05,29.94,16,2,18,0.00
2013-8-6,71.0,57.6,41.9,56.7,50.6,41.1,99,80,52,30.11,30.05,11,1,13,0.00
2013-8-7,65.4,62.5,59.1,62.8,58.7,54.1,97,87,78,30.11,30.01,15,3,15,0.12
2013-8-8,77.1,69.1,61.4,69.9,65.6,60.5,98,89,74,30.01,29.93,12,3,14,0.03
2013-8-9,74.1,69.4,65.9,71.4,67.9,64.7,99,95,87,29.94,29.74,12,1,17,2.12
2013-8-10,72.9,63.3,48.5,64.6,55.9,47.1,97,79,53,30.03,29.83,21,2,21,0.00
2013-8-11,70.5,57.2,44.5,60.3,51.8,43.6,99,84,54,30.11,30.01,11,1,0,0.00
2013-8-12,72.3,61.2,50.9,63.3,56.4,50.3,99,86,57,30.05,29.91,8,1,0,0.00
2013-8-13,73.0,63.6,57.3,66.4,60.6,54.6,98,90,74,29.91,29.64,14,2,15,0.43
2013-8-14,64.1,55.6,48.1,54.4,48.9,44.3,92,79,64,30.01,29.72,18,3,19,0.00
2013-8-15,67.2,54.5,43.9,52.8,48.0,43.1,99,81,52,30.15,30.01,11,1,16,0.00
2013-8-16,70.5,56.5,45.2,59.2,51.5,44.7,99,85,57,30.22,30.13,8,1,0,0.00
2013-8-17,73.2,57.2,45.8,60.2,52.6,45.3,99,86,57,30.30,30.22,10,1,0,0.00
2013-8-18,69.7,59.6,50.9,61.4,55.8,50.3,99,88,65,30.28,30.11,4,0,0,0.00
2013-8-19,73.7,61.4,52.1,61.2,56.5,51.6,99,85,58,30.11,30.00,9,1,0,0.00
2013-8-20,77.6,62.6,49.1,61.9,56.1,48.6,99,82,51,30.14,30.04,10,1,14,0.01
2013-8-21,78.7,63.9,50.7,69.3,59.1,50.1,99,86,56,30.18,30.04,9,1,0,0.00
2013-8-22,79.4,67.8,55.8,71.0,62.3,55.0,99,84,56,30.06,29.83,11,1,13,0.00
2013-8-23,71.0,62.5,51.9,62.9,55.4,48.7,94,78,57,30.15,29.87,13,2,14,0.00
2013-8-24,72.5,58.3,44.0,57.6,50.2,42.9,98,76,48,30.35,30.14,12,1,12,0.00
2013-8-25,76.5,59.9,44.8,62.5,52.2,44.3,99,79,44,30.39,30.18,8,1,12,0.00
2013-8-26,71.9,64.4,58.4,65.4,61.3,53.2,98,90,76,30.19,29.86,9,0,0,0.72
2013-8-27,76.8,66.6,58.7,66.4,63.6,58.1,99,91,67,29.90,29.81,11,1,0,0.29
2013-8-28,78.8,65.7,54.6,69.4,62.4,54.3,100,90,65,29.91,29.83,9,1,0,0.00
2013-8-29,72.8,63.4,56.7,66.9,61.6,56.4,99,94,79,30.01,29.90,10,1,0,0.01
2013-8-30,77.0,65.9,55.2,70.3,62.6,54.9,100,90,59,29.99,29.81,8,1,0,0.00
2013-8-31,80.8,69.2,63.1,70.8,66.2,61.9,99,91,66,29.82,29.72,11,1,13,0.09
2013-9-1,75.1,67.2,60.0,71.3,66.0,59.7,100,96,86,29.82,29.78,7,0,0,0.00
2013-9-2,74.1,67.1,61.2,70.7,65.7,60.3,100,95,81,29.81,29.65,10,1,12,0.81
2013-9-3,69.5,61.0,54.3,60.5,56.5,52.3,99,86,60,29.85,29.71,12,1,14,0.01
2013-9-4,74.3,61.5,53.6,56.9,53.4,49.8,97,77,47,29.95,29.84,12,2,15,0.00
2013-9-5,62.9,55.9,42.7,56.9,47.0,37.3,98,75,42,30.16,29.88,18,2,21,0.00
2013-9-6,61.9,47.0,33.8,47.7,41.0,33.0,98,82,50,30.26,30.13,8,1,0,0.00
2013-9-7,70.5,54.4,40.2,59.2,49.6,39.7,99,86,43,30.15,29.88,8,1,0,0.02
2013-9-8,64.7,56.9,43.7,59.3,50.2,38.6,97,80,49,30.09,29.80,17,2,21,0.00
2013-9-9,67.5,52.0,34.5,55.5,44.8,33.6,99,79,47,30.22,30.08,11,2,0,0.00
2013-9-10,80.8,67.8,59.5,72.1,64.7,55.3,99,90,73,30.11,29.99,10,1,12,0.15
2013-9-11,88.3,73.8,63.5,75.7,68.9,62.9,100,86,58,30.07,29.91,14,1,17,0.62
2013-9-12,79.3,67.4,60.2,71.6,65.1,59.8,100,93,74,29.93,29.64,12,1,14,0.67
2013-9-13,63.7,56.9,46.9,59.9,54.1,43.8,99,91,76,29.83,29.59,12,2,16,0.01
2013-9-14,55.7,47.4,39.0,47.0,42.9,38.1,97,85,70,30.12,29.83,12,2,14,0.00
2013-9-15,62.6,48.3,33.7,53.0,44.4,33.1,99,88,53,30.21,30.07,10,1,0,0.00
2013-9-16,57.9,51.0,41.6,51.2,47.5,36.8,98,88,76,30.27,30.05,11,2,17,0.09
2013-9-17,57.2,44.2,35.5,41.9,36.8,32.1,97,77,51,30.47,30.27,14,2,17,0.00
2013-9-18,63.9,45.9,32.3,50.5,41.5,31.8,99,86,59,30.37,30.18,9,1,0,0.00
2013-9-19,69.4,52.3,37.7,56.6,47.2,37.1,99,85,57,30.20,30.07,8,1,0,0.00
2013-9-20,72.3,56.9,41.8,58.3,50.7,41.4,100,82,36,30.09,29.96,11,1,13,0.01
2013-9-21,65.6,60.6,54.0,60.4,55.5,47.0,95,84,60,29.96,29.60,24,5,27,0.67
2013-9-22,56.1,51.2,44.4,54.6,45.9,37.8,98,83,67,29.88,29.60,16,2,18,0.12
2013-9-23,55.1,45.1,37.0,42.7,37.9,34.4,91,77,58,30.05,29.87,16,3,18,0.00
2013-9-24,64.6,49.4,37.7,43.1,38.0,33.6,92,68,33,30.05,29.91,15,2,15,0.00
2013-9-25,65.8,49.3,36.2,54.3,43.8,35.4,99,84,50,29.99,29.89,11,1,0,0.00
2013-9-26,60.9,48.7,38.1,49.4,44.8,37.6,99,88,61,30.15,29.99,11,1,13,0.00
2013-9-27,59.5,47.4,36.0,51.8,44.7,35.5,99,91,71,30.30,30.14,11,1,0,0.01
2013-9-28,66.2,49.5,36.4,53.3,44.3,35.9,99,85,44,30.37,30.26,9,1,0,0.00
2013-9-29,61.6,44.6,37.6,55.3,43.2,37.1,100,95,70,30.26,30.10,8,0,0,0.00
2013-9-30,65.2,50.3,38.1,54.9,46.1,37.6,99,87,58,30.10,29.99,12,1,12,0.00
2013-10-1,70.5,53.2,37.9,57.5,48.2,37.4,100,85,56,30.04,29.92,9,1,14,0.01
2013-10-2,73.0,61.2,47.7,61.2,54.5,45.5,99,80,60,30.00,29.91,13,2,15,0.00
2013-10-3,71.5,56.2,42.3,54.7,45.6,30.9,97,72,26,30.11,30.00,9,1,12,0.00
2013-10-4,73.5,59.7,48.9,64.7,57.2,46.7,99,92,68,30.07,29.98,9,0,12,0.30
2013-10-5,66.0,59.6,55.5,62.9,58.8,55.1,100,97,88,30.07,30.01,6,0,0,0.03
2013-10-6,60.4,57.8,55.8,59.5,57.4,55.2,100,99,95,30.09,30.01,18,2,20,0.41
2013-10-7,66.5,59.5,46.7,64.7,57.1,42.1,99,92,77,30.01,29.65,27,5,37,1.57
2013-10-8,59.7,48.5,36.4,43.3,40.3,35.6,97,75,49,30.37,29.91,14,2,16,0.00
2013-10-9,57.7,43.4,32.8,44.5,37.6,32.3,99,83,47,30.47,30.36,8,1,0,0.00
2013-10-10,55.4,44.7,34.6,46.1,37.6,26.0,99,79,32,30.36,30.19,7,0,0,0.00
2013-10-11,67.3,50.4,39.1,53.7,42.9,33.3,92,76,58,30.19,30.09,9,1,12,0.00
2013-10-12,66.8,51.0,36.3,54.2,46.1,35.3,98,85,61,30.33,30.16,10,1,13,0.00
2013-10-13,61.2,51.0,40.2,51.0,46.9,39.4,97,87,65,30.38,30.31,10,1,0,0.00
2013-10-14,62.6,49.3,37.0,52.9,45.4,36.4,99,87,61,30.34,30.24,9,1,0,0.00
2013-10-15,65.3,55.5,46.1,57.4,51.5,45.0,98,87,71,30.27,30.09,12,1,12,0.00
2013-10-16,59.8,53.5,43.7,52.6,48.4,39.3,93,83,70,30.10,29.86,10,1,12,0.00
2013-10-17,66.3,59.1,52.2,57.6,53.0,46.2,96,81,51,29.86,29.58,23,2,29,0.20
2013-10-18,59.6,50.9,37.8,57.9,43.7,36.1,95,78,47,29.93,29.57,17,2,20,0.39
2013-10-19,57.2,44.5,34.4,45.4,38.6,33.6,98,82,49,29.96,29.71,21,2,21,0.02
2013-10-20,53.0,44.7,34.8,44.8,35.0,31.6,92,70,46,30.03,29.69,15,2,17,0.00
2013-10-21,60.1,47.2,32.4,42.5,36.4,31.1,97,69,45,30.12,29.93,17,3,18,0.00
2013-10-22,56.6,46.5,32.5,44.2,39.1,29.7,90,76,59,29.93,29.70,11,2,19,0.00
2013-10-23,45.1,36.8,28.6,34.1,31.3,26.6,94,81,63,29.79,29.61,9,1,0,0.01
2013-10-24,43.5,36.0,27.7,32.2,26.7,24.0,90,70,46,29.93,29.72,17,2,22,0.00
2013-10-25,43.7,35.5,31.1,30.5,28.7,26.5,90,77,58,30.18,29.93,15,2,20,0.00
2013-10-26,46.1,37.3,26.5,30.7,26.5,24.4,96,67,43,30.17,29.83,18,3,21,0.00
2013-10-27,45.7,39.2,28.8,31.8,29.1,25.6,90,68,53,30.08,29.80,14,2,18,0.00
2013-10-28,49.9,37.2,26.6,35.8,29.9,24.1,91,76,54,30.34,30.07,14,1,14,0.00
2013-10-29,40.4,31.5,25.6,26.7,24.0,21.3,92,75,54,30.43,30.34,8,1,0,0.00
2013-10-30,51.3,39.1,29.3,41.6,34.8,23.9,97,85,66,30.35,30.20,9,1,0,0.00
2013-10-31,57.2,47.5,32.7,55.1,46.1,31.9,99,95,88,30.23,29.70,30,3,34,0.54
2013-11-1,62.9,55.7,43.4,58.8,49.4,40.2,95,81,55,29.70,29.39,31,6,41,0.58
2013-11-2,56.9,43.5,35.1,47.4,39.7,34.3,98,88,57,29.77,29.60,9,1,14,0.21
2013-11-3,41.6,30.4,23.7,39.2,26.5,15.5,94,85,69,30.47,29.77,17,2,19,0.00
2013-11-4,37.2,26.6,19.4,19.6,16.3,13.4,84,66,42,30.69,30.46,13,1,14,0.00
2013-11-5,48.4,37.7,26.3,35.7,30.2,17.3,89,74,59,30.67,30.45,18,2,18,0.00
2013-11-6,52.7,45.7,35.9,47.0,41.0,33.9,96,84,70,30.47,29.99,14,2,17,0.00
2013-11-7,53.4,43.8,32.7,49.8,41.0,28.9,96,90,83,29.99,29.75,13,2,19,0.33
2013-11-8,35.5,32.2,29.2,28.9,26.4,22.8,92,79,62,30.15,29.83,21,4,26,0.00
2013-11-9,39.9,34.3,29.7,27.9,25.9,24.0,84,71,56,30.24,29.93,14,2,16,0.00
2013-11-10,44.9,39.4,34.5,36.0,31.9,27.4,92,75,61,29.95,29.78,21,3,25,0.05
2013-11-11,43.4,37.7,31.8,31.5,26.9,22.0,86,66,44,30.13,29.91,18,3,25,0.00
2013-11-12,37.6,24.9,19.1,31.9,18.4,11.7,89,76,66,30.25,29.91,25,4,25,0.00
2013-11-13,28.5,21.1,16.1,16.8,13.4,11.0,85,72,53,30.37,30.21,13,2,16,0.00
2013-11-14,50.7,36.0,21.3,25.9,16.4,8.0,83,46,26,30.21,30.11,10,2,12,0.00
2013-11-15,55.7,39.4,27.4,25.2,18.8,11.1,69,45,19,30.21,30.12,7,1,0,0.00
2013-11-16,52.8,43.0,31.7,39.8,33.6,20.2,94,70,43,30.31,30.20,13,1,15,0.00
2013-11-17,54.2,49.8,41.1,52.9,47.7,37.6,97,93,75,30.24,29.70,32,5,35,0.22
2013-11-18,56.4,49.2,35.9,54.5,38.8,26.2,97,69,41,29.70,29.48,29,4,33,0.57
2013-11-19,35.9,29.3,23.4,27.8,21.9,17.5,83,73,63,30.35,29.69,21,5,24,0.00
2013-11-20,35.2,23.1,14.4,17.7,11.8,-1.4,89,66,21,30.64,30.34,11,1,14,0.00
2013-11-21,39.5,30.1,15.5,33.4,22.8,11.0,85,75,47,30.64,30.38,13,1,15,0.00
2013-11-22,48.5,42.3,36.3,45.6,40.0,32.5,98,92,85,30.38,29.87,15,1,18,0.08
2013-11-23,39.0,27.1,14.8,36.2,18.9,5.8,90,71,53,29.99,29.83,19,4,23,0.00
2013-11-24,18.4,13.1,9.5,8.0,3.8,-0.6,85,66,45,30.30,29.88,21,6,29,0.00
2013-11-25,29.8,20.5,11.2,14.7,9.7,4.1,81,64,35,30.44,30.25,15,3,19,0.00
2013-11-26,35.6,28.5,23.2,35.1,24.9,5.3,98,87,36,30.28,29.90,17,1,22,0.00
2013-11-27,48.7,35.7,25.2,48.4,34.5,21.5,99,95,85,29.90,29.39,19,3,19,1.37
2013-11-28,21.9,16.6,10.3,14.0,11.0,7.7,92,79,65,30.46,29.84,24,3,24,0.00
2013-11-29,25.9,18.2,12.2,17.7,12.7,6.2,93,79,62,30.75,30.46,8,1,12,0.00
2013-11-30,28.5,17.0,3.5,24.3,10.7,0.9,90,77,55,30.77,30.40,16,2,20,0.00
2013-12-1,39.2,32.2,27.5,29.4,27.3,24.5,93,82,66,30.40,30.00,16,1,24,0.03
2013-12-2,40.6,31.5,26.1,35.5,29.3,25.1,97,91,80,30.01,29.88,5,0,0,0.01
2013-12-3,41.4,32.0,24.9,36.4,29.7,23.8,98,91,77,30.00,29.89,9,1,0,0.01
2013-12-4,43.1,31.0,23.2,41.4,28.6,22.0,98,91,76,30.16,29.99,7,1,0,0.00
2013-12-5,53.6,47.6,41.8,52.5,46.5,39.7,99,96,90,30.15,29.88,19,3,20,0.19
2013-12-6,52.5,35.8,26.4,51.3,33.9,24.8,98,93,80,30.13,29.83,11,2,13,0.22
2013-12-7,30.0,24.4,18.2,25.2,20.2,12.6,94,84,69,30.50,30.08,16,2,17,0.00
2013-12-8,23.6,19.4,14.6,18.3,15.3,11.5,91,84,74,30.60,30.42,8,1,0,0.00
2013-12-9,34.0,27.7,19.1,33.5,26.1,16.9,98,94,88,30.42,29.92,13,2,18,0.00
2013-12-10,29.8,24.2,17.1,27.5,20.6,11.1,96,86,75,30.00,29.80,10,1,12,0.00
2013-12-11,25.2,18.3,14.5,15.0,12.3,9.9,88,77,62,30.21,30.00,13,2,15,0.00
2013-12-12,18.1,11.2,2.6,11.1,4.8,-0.3,89,75,54,30.31,30.05,11,1,12,0.00
2013-12-13,21.7,16.6,11.5,14.7,9.8,4.8,85,75,64,30.36,30.01,19,3,20,0.00
2013-12-14,13.6,9.2,4.9,11.7,5.8,1.6,92,86,76,30.51,30.03,8,1,0,0.00
2013-12-15,27.6,22.5,13.7,26.4,19.4,11.7,96,88,76,30.02,29.58,16,1,16,0.00
2013-12-16,22.7,14.1,-0.6,16.5,6.6,-3.2,88,72,55,30.19,29.73,13,2,18,0.00
2013-12-17,21.5,10.7,-5.2,19.7,8.4,-7.5,94,90,84,30.22,30.00,11,1,0,0.00
2013-12-18,27.7,20.9,12.3,20.6,17.3,10.2,94,86,68,30.10,29.97,10,1,15,0.00
2013-12-19,40.0,29.5,16.4,29.3,23.4,13.9,94,79,56,30.11,29.98,13,1,14,0.16
2013-12-20,50.6,42.6,30.1,43.1,36.8,28.4,96,81,54,30.10,29.90,17,2,17,0.20
2013-12-21,59.1,51.1,43.1,52.4,47.8,39.3,98,89,75,29.93,29.81,17,2,17,0.13
2013-12-22,61.8,58.2,53.8,57.0,52.7,48.6,95,82,70,29.88,29.65,31,5,32,0.05
2013-12-23,54.1,41.0,27.1,49.0,39.2,21.8,98,93,79,30.11,29.85,13,1,16,0.55
2013-12-24,27.1,21.7,10.6,22.3,16.2,4.8,87,79,65,30.29,30.09,14,2,17,0.00
2013-12-25,19.2,11.9,5.0,8.2,4.1,0.5,83,71,53,30.52,30.28,15,2,17,0.00
2013-12-26,26.9,22.0,16.8,22.7,15.4,7.0,85,75,63,30.42,30.14,19,3,19,0.00
2013-12-27,28.2,23.3,17.0,20.8,17.9,12.8,92,80,66,30.31,30.24,11,1,14,0.00
2013-12-28,42.9,31.9,17.7,30.0,24.9,15.8,95,77,56,30.25,30.05,9,1,15,0.00
2013-12-29,44.5,33.7,30.3,36.2,30.5,25.9,97,88,52,30.05,29.55,5,0,13,0.76
2013-12-30,33.1,20.8,4.8,32.3,17.4,1.9,97,86,74,30.17,29.66,11,3,18,0.03
2013-12-31,20.5,12.6,4.9,14.9,7.9,2.1,90,81,72,30.25,30.03,16,2,19,0.00
2014-1-1,19.4,14.2,10.1,11.9,7.4,4.5,91,75,57,30.40,30.23,14,2,14,0.00
2014-1-2,12.9,10.6,5.4,10.7,7.8,1.3,91,88,82,30.32,29.83,4,0,0,0.00